Theta_e
318 318 317 317 318 318 319 320 320 320 321 322 322 322 321 322 321 322 322 323 324 325 327 330 331 332 334 335 335 336 336 336 337 337 336 335 336 337 337 337 336 335 335 335 337 336 337 339 337 335 335 334 334 335 334 334 331 329 328 328 327 327 330
317 317 317 317 317 318 318 319 319 320 320 321 322 322 322 322 321 321 322 322 323 324 324 326 326 328 331 333 334 335 336 336 337 337 336 335 336 336 337 337 337 336 336 336 337 336 335 336 337 336 335 335 336 336 335 335 333 332 331 329 329 329 329
317 316 317 317 317 317 318 318 319 319 319 320 320 321 322 322 322 321 321 321 321 321 322 322 322 323 325 328 330 332 334 336 336 336 336 335 335 336 337 337 337 337 337 337 337 337 335 335 335 335 334 337 341 339 336 335 334 333 333 332 332 330 329
317 317 317 317 317 317 318 318 318 318 319 319 319 319 320 321 322 322 322 321 321 321 321 322 322 323 324 325 327 328 331 334 335 336 336 335 335 335 336 336 336 337 337 337 338 337 337 337 336 335 335 336 340 338 336 335 334 334 335 334 334 333 330
316 316 316 316 316 316 317 317 317 318 318 318 319 319 320 320 321 321 321 321 321 321 321 321 321 322 323 324 325 326 328 330 332 334 336 335 335 335 336 336 336 336 337 337 337 337 338 338 338 338 337 337 338 337 336 335 335 334 334 334 335 335 334
316 316 316 315 315 315 316 316 317 317 318 318 318 319 319 319 320 320 320 320 320 319 319 320 320 320 320 321 321 323 324 324 326 329 333 335 335 335 336 336 336 336 336 336 337 337 337 338 338 337 337 337 338 337 337 336 336 335 334 333 333 334 334
316 316 315 315 315 315 316 316 316 317 317 317 317 317 318 318 318 318 319 319 319 319 319 319 319 319 319 319 320 320 321 322 322 323 327 331 334 335 335 336 336 336 336 336 336 337 337 337 337 337 337 337 337 338 337 337 336 337 337 334 332 333 335
316 316 315 315 315 315 316 316 316 316 316 316 316 316 317 317 317 317 317 317 317 317 318 318 318 318 318 318 319 320 320 321 322 322 323 325 330 333 334 335 336 336 336 335 335 336 336 337 337 337 337 337 338 338 338 338 337 337 336 335 333 332 333
316 316 315 315 315 315 315 315 315 315 315 315 316 316 316 316 316 316 316 316 316 316 317 317 317 317 317 317 318 318 319 319 321 322 323 324 326 329 332 334 335 336 336 335 335 335 336 336 337 337 337 337 338 339 339 338 338 338 336 335 334 331 331
315 315 315 315 314 314 314 314 314 315 315 315 315 315 315 315 315 315 315 315 315 315 316 316 317 317 316 316 317 317 318 318 319 320 321 322 324 325 328 331 334 335 335 335 335 335 335 336 336 337 337 337 337 338 338 338 339 338 337 335 335 333 333
315 315 314 314 313 313 314 314 314 314 314 314 314 314 314 314 314 315 315 315 315 315 315 316 316 316 316 316 316 316 316 317 318 319 319 320 322 323 325 327 330 333 335 335 335 335 335 336 337 337 336 336 337 337 337 337 338 337 336 336 335 334 332
315 315 314 313 313 313 314 314 314 313 313 313 313 313 314 314 314 314 315 315 315 315 315 315 315 315 316 316 316 316 316 316 317 318 319 319 320 322 324 325 327 330 332 334 335 335 336 336 337 337 336 336 336 336 336 337 337 336 335 336 335 333 331
315 315 314 313 313 313 313 313 313 313 313 312 313 313 313 314 314 314 314 314 314 314 314 314 314 315 315 315 316 316 316 316 317 318 319 319 319 320 322 323 325 327 329 331 334 335 336 337 337 337 336 336 335 335 336 337 337 336 335 336 335 334 332
314 314 313 313 313 313 313 313 313 313 313 313 313 313 313 313 313 313 313 313 313 313 313 313 313 313 314 314 315 315 316 316 317 317 317 318 319 320 320 321 323 324 326 328 331 334 335 336 336 336 336 336 335 335 336 337 337 336 335 335 336 336 335
314 314 313 312 312 313 313 313 313 313 313 313 313 313 313 312 312 312 312 312 312 311 311 312 312 312 313 313 313 314 315 316 316 316 316 317 317 318 319 320 321 322 324 325 328 330 333 334 334 335 336 335 334 333 334 336 337 336 336 336 336 337 336
314 313 312 312 312 312 312 312 312 312 312 312 312 312 312 312 311 311 311 310 310 310 310 311 311 311 311 311 312 312 313 314 315 315 316 316 316 316 317 319 320 321 322 324 326 327 329 331 333 334 335 335 334 332 332 335 336 336 336 336 336 336 336
313 312 312 312 312 312 312 312 312 312 312 312 311 311 311 310 310 310 310 310 309 309 309 310 310 310 310 310 311 311 312 312 313 314 315 315 315 315 316 317 319 320 321 322 324 325 327 329 331 334 334 333 333 334 334 336 336 335 336 336 335 336 336
312 311 311 311 311 311 311 311 311 311 310 310 310 309 309 309 309 309 309 309 309 309 308 309 308 309 309 309 310 310 311 311 312 313 314 314 315 315 316 316 317 319 320 321 322 324 326 327 329 332 333 332 332 334 335 335 335 335 336 336 336 335 336
311 311 311 310 310 310 310 310 310 309 309 309 308 308 308 308 308 308 308 308 308 308 308 308 309 309 308 309 309 310 310 311 310 310 311 312 312 313 314 315 315 316 317 318 319 321 323 325 327 329 331 331 332 332 332 332 332 332 333 335 336 336 336
311 311 310 310 309 309 309 309 309 308 308 308 308 308 308 308 308 308 308 308 308 308 308 308 308 308 308 308 309 308 308 308 308 308 308 309 309 310 311 312 313 313 314 315 316 318 320 323 323 324 325 327 329 330 330 330 330 330 332 334 336 337 336
311 310 310 309 309 309 309 308 308 308 308 307 307 307 307 307 307 307 307 307 307 307 307 307 307 307 307 307 306 306 305 305 306 306 306 306 307 307 308 309 310 311 312 313 314 315 316 317 318 319 322 324 326 328 329 330 330 331 332 333 334 335 336
310 310 309 308 308 308 308 308 307 307 306 306 306 306 306 306 305 305 305 305 305 305 305 306 306 306 306 305 304 303 303 304 304 304 304 305 305 305 306 307 308 309 310 311 311 312 313 313 314 318 322 324 326 327 328 329 329 330 330 330 331 332 333
310 309 308 308 308 308 307 307 306 306 306 306 306 306 305 305 304 304 304 304 304 304 304 305 305 305 304 303 302 301 300 301 301 302 303 303 303 304 304 305 306 307 308 309 310 311 313 314 315 319 321 322 324 327 328 329 328 328 329 329 329 330 331
309 308 308 308 307 307 307 306 305 306 306 306 305 305 305 304 304 304 303 303 303 303 304 304 304 303 303 302 300 299 298 299 300 300 301 301 302 302 302 303 304 305 306 307 309 311 313 315 316 317 319 321 323 326 327 328 328 328 329 329 328 328 330
308 308 307 307 307 307 306 305 305 306 305 305 305 304 304 304 303 303 303 302 302 302 302 303 302 302 301 300 298 297 297 298 299 299 300 300 300 301 301 302 302 303 304 306 308 310 312 314 314 316 319 321 322 324 325 326 327 327 328 328 328 328 329
308 307 307 307 307 306 305 305 306 305 305 304 304 303 303 303 302 302 302 302 302 301 301 301 301 300 299 298 297 297 297 297 298 299 299 299 300 300 301 301 302 303 304 306 308 310 312 313 315 317 320 321 322 323 324 324 325 326 327 327 327 327 328
307 307 306 306 306 305 305 305 305 305 304 304 303 303 303 302 302 301 301 301 301 301 301 300 300 299 298 298 297 296 296 297 297 298 298 299 299 300 301 302 302 304 305 306 307 309 311 313 314 316 319 320 321 322 323 323 324 324 325 326 326 328 329
307 306 306 306 305 305 305 305 305 304 304 303 303 303 302 302 301 301 301 300 300 300 300 300 299 298 297 296 296 295 295 296 296 297 297 298 299 299 300 301 302 303 304 305 307 308 310 311 312 314 317 319 320 321 322 322 323 323 324 326 327 329 330
306 306 306 305 305 304 304 304 304 304 303 303 303 302 302 302 301 300 300 300 299 299 299 299 298 297 296 295 294 294 294 295 295 296 296 297 297 298 299 300 301 302 303 305 307 308 308 308 310 312 315 317 320 321 322 323 323 323 323 324 325 328 329
306 306 305 305 304 304 304 304 304 303 303 302 302 302 302 301 300 300 300 299 299 299 298 298 297 296 295 294 293 293 293 293 294 294 294 295 296 296 297 299 300 302 303 304 305 306 306 307 308 310 313 316 317 319 320 321 322 322 323 324 325 326 327
306 305 305 305 304 304 304 304 303 303 302 302 302 302 301 301 300 300 300 299 299 298 297 297 296 295 294 293 292 292 292 292 292 292 293 293 294 295 296 298 299 301 302 303 304 304 304 305 306 307 310 312 314 316 317 319 320 321 321 322 323 323 324
305 305 305 304 304 304 304 303 303 302 302 302 302 302 301 301 300 300 299 298 297 297 296 295 295 294 293 292 291 291 291 291 291 291 292 293 293 295 295 297 298 299 300 301 302 302 303 303 304 305 307 309 312 314 315 316 317 318 318 318 319 319 320
305 305 304 304 304 304 303 303 302 302 302 302 302 301 301 301 300 300 299 297 297 296 296 295 294 293 292 291 291 290 290 290 291 291 292 292 293 294 295 296 297 298 299 300 300 301 301 302 303 304 305 306 307 309 311 312 313 314 314 315 316 317 318
305 305 305 304 304 304 303 303 303 302 302 302 301 301 301 301 300 300 298 297 297 296 296 295 294 293 292 291 290 290 290 290 291 291 291 292 293 294 295 296 297 298 299 299 299 300 300 301 301 302 303 303 303 305 307 309 311 312 312 314 315 316 317
305 305 304 304 304 303 303 303 303 302 302 302 301 301 301 301 300 299 298 297 297 297 296 295 293 292 291 290 290 290 290 291 291 292 292 293 294 296 297 297 297 297 297 297 298 298 299 299 299 299 299 300 301 303 305 306 309 310 311 313 314 316 317
304 304 304 304 304 303 303 303 303 302 301 301 300 300 301 300 300 299 298 297 297 297 295 294 292 291 290 290 290 290 291 292 293 294 293 294 296 298 298 296 296 296 295 295 296 297 296 296 296 296 297 299 301 303 305 306 308 309 311 313 314 315 316
304 304 304 304 304 303 303 303 303 302 301 300 300 300 300 299 299 299 298 297 296 296 294 294 293 291 290 289 290 290 292 293 294 295 295 296 297 298 297 295 295 295 295 294 294 295 295 294 294 295 296 298 300 301 303 304 306 307 310 312 314 315 316
Wind_Speed
5 6 8 8 7 7 8 9 9 9 8 8 8 8 8 8 9 9 10 12 13 14 15 16 17 17 18 19 19 19 21 23 24 26 27 24 20 19 21 23 25 27 26 21 16 10 4 5 11 17 22 24 25 25 25 26 29 29 30 34 34 32 32
5 7 7 7 8 8 9 9 9 9 9 8 8 8 8 8 8 9 9 10 12 13 14 16 17 17 17 18 19 20 21 22 25 27 28 26 24 23 20 20 21 23 23 23 21 17 10 7 8 9 15 19 20 23 24 22 25 28 28 30 34 34 32
6 7 8 8 8 9 9 9 9 9 9 8 8 8 8 9 9 9 9 10 11 12 14 16 17 18 19 19 18 20 21 23 25 25 27 27 27 27 25 21 19 18 16 15 17 17 13 11 10 8 11 13 11 17 25 24 23 25 27 27 28 31 34
6 7 8 9 10 10 10 10 10 10 9 9 9 9 9 9 9 9 10 11 11 12 13 14 15 16 18 18 18 19 20 21 23 24 26 28 28 28 28 25 24 22 18 14 15 17 13 9 9 8 12 15 11 13 23 27 26 26 26 28 29 28 29
5 6 8 9 10 10 11 11 11 11 11 10 10 10 10 9 10 10 11 11 11 12 14 14 15 16 17 17 18 18 18 18 20 22 25 28 28 29 29 29 29 28 26 24 22 19 16 14 11 6 9 14 11 12 21 24 26 28 28 28 30 32 31
5 6 7 8 9 10 11 11 12 12 12 12 11 11 11 10 11 12 12 12 13 14 15 15 16 17 18 19 19 20 20 21 21 20 23 26 27 28 29 29 30 30 30 30 28 24 21 20 15 9 11 14 9 11 18 18 20 25 28 30 29 31 35
5 6 7 8 9 10 10 11 12 13 13 14 13 13 12 12 13 13 14 14 15 15 15 16 16 17 17 18 19 19 20 23 24 24 24 25 26 27 28 28 28 30 31 31 29 27 25 21 18 13 11 12 11 11 14 15 16 17 21 28 28 26 31
5 7 8 9 9 10 10 11 12 13 14 14 14 14 14 14 15 15 15 15 15 16 16 16 17 18 18 18 18 18 19 21 23 25 25 25 26 27 28 29 28 29 31 32 30 29 28 25 23 20 13 9 9 9 9 12 15 16 21 25 27 26 26
6 7 9 9 10 10 11 12 13 13 14 14 15 15 15 15 16 16 16 16 17 17 17 18 18 18 18 18 18 19 20 20 21 23 25 26 26 26 26 28 29 29 31 32 31 30 31 30 28 27 22 14 9 7 7 9 9 13 21 24 23 26 27
6 8 9 10 11 11 12 12 13 14 14 14 15 15 15 16 17 17 18 19 18 18 18 19 19 19 19 19 19 20 20 21 21 23 24 26 27 27 26 27 27 29 31 31 31 31 31 32 32 31 29 24 17 10 7 9 8 9 16 20 19 21 26
7 8 9 11 11 12 12 12 14 14 14 15 15 15 16 17 17 18 18 19 19 19 19 20 20 20 21 20 20 20 21 22 22 22 23 25 26 27 28 28 27 28 30 30 31 31 32 32 32 32 32 31 26 18 10 9 10 13 16 19 21 23 25
9 9 10 12 12 11 12 13 14 14 15 15 15 15 16 17 17 17 18 18 19 19 20 20 21 21 21 21 21 20 19 21 22 22 22 22 24 26 27 28 27 27 28 29 30 31 32 32 32 32 32 32 31 29 23 13 11 17 21 20 24 28 27
10 11 12 12 11 11 12 13 14 15 15 15 15 16 17 17 17 17 18 18 18 19 19 20 20 21 21 22 22 21 19 20 21 22 22 22 23 24 26 27 27 27 27 28 29 30 30 31 31 31 30 30 31 32 31 21 11 16 26 27 28 32 30
11 11 12 12 12 13 13 14 14 15 15 16 16 16 17 17 17 17 17 17 18 18 19 19 19 20 21 23 24 22 19 19 20 20 21 23 23 24 25 27 27 27 27 28 29 28 29 30 31 32 31 29 30 32 32 26 15 14 25 31 30 32 32
11 11 12 13 13 13 13 13 14 15 16 16 16 17 17 17 17 18 18 18 18 18 18 19 19 19 19 21 23 23 21 20 20 21 21 22 23 24 25 26 27 27 27 28 28 28 28 29 29 30 31 29 30 32 33 30 22 14 19 28 30 29 29
10 11 13 14 13 12 13 14 15 15 16 16 17 17 17 18 18 19 19 20 19 18 18 19 19 19 18 19 21 23 24 23 22 22 22 21 22 24 25 27 26 26 27 28 28 28 28 28 28 27 29 31 31 31 32 32 28 20 18 25 29 27 27
9 11 13 13 12 12 13 14 15 15 16 16 17 17 18 18 18 19 19 19 19 19 19 18 18 18 19 21 20 20 22 24 25 24 23 22 22 23 24 27 26 25 27 28 27 28 28 29 28 27 28 30 30 30 32 33 31 28 24 24 27 28 28
10 11 13 12 11 12 14 15 15 15 16 17 17 18 18 18 18 18 18 18 19 20 19 19 19 18 17 20 22 22 22 22 22 22 22 21 21 20 21 24 25 25 26 27 26 26 26 26 27 28 28 29 30 30 30 31 30 30 29 25 25 28 29
10 11 11 11 11 13 13 14 16 17 17 18 19 19 19 19 19 19 18 18 18 19 20 20 20 19 18 18 20 21 20 19 20 21 22 22 22 21 22 23 24 24 25 26 26 26 26 25 24 26 26 27 30 30 30 32 30 28 28 27 26 26 27
10 10 10 10 11 13 13 14 16 17 17 18 19 20 20 21 22 23 21 20 19 18 19 20 20 19 18 18 17 18 21 23 24 23 22 22 22 22 23 24 25 26 26 26 27 26 26 25 24 27 28 26 26 26 27 30 30 28 27 26 25 24 25
9 10 11 11 11 12 13 13 14 15 17 18 18 18 19 20 21 21 21 21 21 20 20 20 19 18 16 18 20 22 23 23 23 22 22 22 22 22 23 24 26 27 26 26 28 29 30 30 30 31 31 30 27 25 23 24 25 26 25 21 20 21 23
9 11 12 11 11 12 13 13 14 16 17 16 15 17 19 19 19 19 19 19 19 19 20 19 17 17 18 20 22 22 20 18 18 20 22 22 22 23 24 25 26 28 29 31 33 34 35 34 33 32 31 29 28 26 24 22 22 22 20 15 16 19 19
9 11 11 10 11 12 12 14 16 17 15 14 15 18 19 19 19 19 19 18 18 17 18 17 16 18 20 20 20 19 19 17 17 18 20 21 23 24 25 27 28 29 32 35 35 34 33 32 30 30 30 30 28 26 24 22 21 22 19 14 14 16 14
9 10 9 10 12 12 13 15 16 14 13 15 17 19 19 19 19 19 18 18 18 17 17 16 17 18 18 18 19 21 21 19 17 17 19 21 23 25 26 27 27 28 29 31 31 31 31 31 30 30 31 30 27 25 24 22 21 22 20 16 15 16 14
9 10 9 10 11 12 14 15 13 12 14 16 17 18 18 19 18 18 18 18 17 17 17 17 18 19 20 21 22 23 23 20 18 18 19 21 24 25 25 26 26 26 26 27 28 29 30 30 30 30 29 29 27 25 24 24 23 23 23 19 16 17 17
10 9 9 10 11 13 15 13 12 14 15 16 17 18 18 19 19 18 18 17 18 17 17 17 18 20 22 23 23 23 23 21 18 19 21 23 24 24 24 25 24 24 24 24 26 27 27 28 28 28 27 26 26 25 23 23 22 23 25 23 19 20 21
8 9 9 10 11 12 13 13 14 16 17 17 17 18 19 19 19 19 18 18 19 18 18 18 19 20 22 23 23 24 24 21 20 22 22 22 23 22 22 23 23 23 24 24 25 26 27 28 28 28 28 27 26 25 24 23 23 23 26 28 26 27 27
7 8 9 10 12 12 12 15 16 16 16 15 16 18 19 20 20 20 19 19 19 18 18 19 20 21 20 21 23 23 22 20 20 22 22 21 22 22 22 22 22 23 24 24 24 25 25 25 25 26 26 26 26 25 24 25 25 25 26 26 26 29 30
7 8 9 11 13 14 14 15 15 15 14 15 16 18 19 19 20 20 19 19 20 20 20 19 20 20 19 21 22 21 19 19 20 21 21 21 21 21 21 22 22 22 23 23 24 24 24 24 24 22 21 21 22 22 22 23 24 24 25 26 27 29 28
6 7 9 11 12 13 14 13 13 13 14 15 16 17 18 18 19 19 19 20 20 21 20 20 20 20 21 22 23 21 18 19 20 20 20 20 20 20 21 21 21 21 22 22 23 25 26 25 22 19 17 17 18 19 20 20 20 19 20 22 24 26 26
5 6 8 10 10 12 12 12 12 12 13 15 16 17 18 18 19 19 19 19 19 20 20 19 19 21 22 23 23 21 18 18 19 19 19 19 19 19 20 20 21 21 20 19 20 23 24 24 22 19 17 16 16 17 18 17 15 14 15 15 17 18 19
2 5 7 6 7 10 11 10 11 12 12 14 15 16 17 18 18 18 18 18 18 19 20 19 19 20 22 23 23 21 18 18 19 18 18 19 18 19 19 20 20 20 18 18 21 24 24 24 22 20 18 15 14 15 15 14 14 15 17 19 20 20 19
1 5 6 4 6 10 10 6 8 10 11 12 14 16 16 17 17 17 17 18 18 17 18 19 19 20 21 22 22 22 19 17 17 17 17 18 19 20 20 19 18 18 19 22 26 26 24 22 19 16 14 13 13 15 17 19 20 20 20 21 22 23 22
2 5 6 5 7 9 8 5 6 8 10 10 12 14 15 16 16 16 17 17 17 17 17 19 19 19 20 22 24 23 19 16 17 17 18 19 20 20 19 17 16 17 20 24 25 23 20 17 15 13 12 12 15 17 20 22 24 24 23 21 21 21 20
2 4 5 6 7 7 8 5 4 5 8 9 10 12 13 14 15 16 16 16 15 16 17 18 18 19 21 24 25 22 20 20 21 19 19 20 20 18 15 14 15 15 18 21 19 17 16 16 15 14 14 15 17 18 19 21 23 23 22 20 18 18 18
3 4 6 7 5 5 7 5 4 5 6 8 10 11 12 13 14 15 16 15 15 16 17 18 18 19 22 25 23 21 22 23 22 18 17 18 19 17 15 16 16 15 17 19 17 14 15 16 16 15 15 15 14 13 14 16 17 18 18 17 17 18 19
4 6 6 5 4 4 5 4 4 4 6 8 10 11 12 12 13 14 15 15 15 16 18 19 18 20 23 24 22 22 23 23 20 16 15 15 16 15 15 16 17 15 16 17 16 14 15 18 19 17 16 15 13 12 13 13 13 14 13 13 12 13 14
Wind_Direction
356 337 332 329 322 317 315 313 312 309 304 295 288 287 288 288 288 286 282 279 277 278 279 278 277 273 264 260 260 253 246 239 231 232 239 238 234 238 239 237 240 245 247 246 244 244 257 283 284 287 285 278 269 266 268 266 259 250 241 238 239 238 233
357 338 332 328 324 323 317 314 314 311 308 302 293 290 289 288 288 288 285 282 279 277 277 277 279 280 274 269 265 262 255 244 237 238 240 238 236 237 236 231 235 241 242 244 244 239 232 247 268 277 280 284 280 269 269 271 269 268 260 247 239 236 235
352 341 335 328 325 323 317 316 315 312 310 306 302 297 290 287 287 288 288 288 288 287 284 280 279 280 281 280 274 271 265 252 244 242 242 243 242 239 237 232 233 236 236 242 240 231 228 239 252 263 265 268 272 268 268 268 267 272 278 275 262 243 235
347 339 336 329 325 322 317 317 316 314 313 308 304 300 296 292 288 286 288 290 293 293 292 289 286 284 283 284 282 279 274 261 253 249 246 247 245 241 239 236 235 235 232 236 235 228 224 227 240 258 261 257 254 264 273 272 265 264 271 281 284 272 251
343 335 331 324 321 320 317 316 316 315 313 312 310 305 303 300 294 291 289 290 291 291 293 293 292 290 288 288 287 285 282 278 271 260 252 248 244 241 240 238 238 238 237 240 243 238 233 231 236 245 259 263 264 264 270 275 271 266 265 267 273 280 276
337 332 326 319 317 316 314 313 314 314 314 313 311 307 306 304 299 299 297 294 293 291 292 292 292 292 292 292 292 290 286 284 283 276 264 256 248 243 243 243 241 241 241 243 244 244 241 240 241 245 257 260 262 266 267 268 270 270 267 263 261 267 274
332 328 322 317 315 311 309 309 308 309 308 307 306 304 304 304 301 300 298 296 293 291 288 288 289 290 291 291 290 291 289 285 284 282 276 269 261 253 250 249 245 243 244 245 244 243 243 242 238 237 249 256 253 261 266 260 257 261 263 261 259 258 260
320 318 314 312 309 305 303 302 301 301 300 300 301 301 301 302 301 299 297 295 292 290 287 286 287 286 286 287 285 286 287 288 287 284 280 276 270 262 256 253 251 248 246 245 244 242 242 241 239 238 239 248 254 253 258 258 248 244 252 257 257 255 251
314 312 310 308 306 304 302 298 297 298 298 297 297 298 299 300 299 299 297 295 293 292 289 287 286 284 283 283 283 281 280 283 285 285 285 281 276 271 264 258 254 251 249 247 245 243 243 242 241 241 237 234 245 252 253 257 252 248 251 254 256 257 255
316 312 310 308 307 305 303 301 299 298 297 296 295 296 297 297 297 297 296 294 294 294 292 290 288 286 285 283 282 282 282 281 278 278 284 285 282 278 274 267 259 254 252 249 247 244 243 242 242 241 239 236 237 245 256 255 254 257 252 246 245 251 253
315 311 310 310 309 307 304 301 300 299 298 297 295 294 294 294 292 292 293 293 295 294 293 291 289 287 285 283 282 283 285 286 281 276 276 280 282 280 277 272 265 259 254 250 249 248 244 242 241 240 239 238 236 235 242 255 254 253 253 249 245 248 252
312 311 313 311 308 306 304 303 301 300 299 297 295 294 292 291 290 289 290 291 292 293 293 293 292 291 289 286 283 280 281 286 286 282 278 276 278 279 277 274 269 264 260 255 252 248 243 241 241 241 239 237 236 235 236 242 256 251 248 250 252 254 256
306 309 310 310 309 307 304 302 302 300 299 298 298 296 293 292 291 291 292 293 293 294 294 295 295 296 296 294 289 282 278 279 282 283 282 281 279 277 277 276 273 270 266 263 257 249 244 242 241 241 240 238 235 236 236 236 245 254 249 248 254 259 258
303 305 306 307 305 303 301 302 304 305 304 303 300 295 292 292 292 293 294 294 294 294 295 296 297 298 299 300 298 291 282 278 278 281 283 285 285 281 278 277 276 275 272 268 263 256 250 248 245 242 240 239 238 237 237 235 236 251 253 250 251 256 257
297 300 303 303 298 299 305 308 309 307 304 302 300 297 295 295 295 295 294 291 291 293 295 294 293 292 292 295 298 298 292 285 280 279 280 283 285 285 283 280 278 277 277 275 271 265 256 250 247 242 239 238 240 240 237 234 234 240 252 250 247 250 253
292 298 299 298 298 305 311 310 309 308 306 306 305 301 298 297 296 294 292 292 292 292 292 292 292 292 293 293 292 293 296 296 292 285 280 279 281 284 286 286 284 281 279 277 275 273 268 257 250 247 243 240 239 241 239 236 234 235 246 250 246 244 248
291 295 293 294 303 312 311 310 310 309 307 307 305 304 303 301 300 298 297 297 296 294 291 290 293 296 300 302 299 294 295 298 299 297 290 283 281 282 282 284 287 289 288 284 280 277 274 267 259 253 249 246 241 239 239 237 232 230 237 248 249 246 245
288 288 288 295 309 314 309 307 308 307 308 308 308 308 306 303 302 300 298 298 299 300 299 298 298 299 300 304 306 305 302 299 301 310 311 306 301 298 293 290 291 295 297 296 294 291 287 282 274 264 255 252 250 246 245 246 242 236 235 241 248 249 245
286 286 290 301 308 306 303 305 309 311 313 317 319 319 316 315 314 310 306 306 304 302 305 309 310 310 307 305 305 307 310 312 316 321 323 321 319 316 312 308 304 302 302 300 300 301 301 298 295 286 274 262 255 250 249 252 254 251 246 243 245 249 247
283 284 290 297 298 298 303 311 316 318 322 327 330 330 331 331 327 322 320 322 322 317 313 313 314 315 314 311 310 311 315 318 319 320 319 318 317 314 309 307 305 303 303 300 297 298 300 304 307 305 300 291 278 264 253 252 255 255 252 249 247 248 251
279 281 285 290 297 307 314 318 323 329 329 326 324 326 330 330 327 325 324 324 325 323 317 313 314 316 318 318 318 318 317 315 314 313 312 312 310 307 302 299 299 299 300 297 294 292 294 298 303 304 303 303 296 282 266 258 256 255 252 250 251 252 255
272 277 282 293 310 317 320 328 331 326 319 316 322 327 325 324 323 324 324 321 319 316 312 310 310 312 316 320 321 320 319 318 315 311 308 306 304 301 298 295 292 292 294 293 292 291 290 290 292 294 296 300 297 286 274 264 259 260 259 254 256 257 255
275 281 293 312 321 318 325 332 323 316 318 330 339 334 324 320 320 319 318 316 313 310 306 304 305 307 312 318 322 324 323 319 315 310 306 303 301 297 295 292 288 287 287 289 290 291 290 288 286 285 289 295 294 284 273 264 256 259 260 251 250 257 256
283 290 313 327 321 322 326 320 315 322 341 347 341 332 324 321 320 318 316 314 311 309 306 304 306 308 311 316 322 326 326 321 313 306 301 299 296 293 290 288 287 286 285 285 286 288 290 288 286 284 286 290 290 281 272 264 255 253 253 247 244 251 253
289 298 322 322 319 325 320 315 329 353 358 350 340 331 323 320 320 319 317 314 311 310 308 307 310 313 318 323 326 326 324 318 308 301 298 295 290 287 287 286 285 284 283 284 284 285 287 287 286 284 283 285 287 284 276 267 260 255 251 246 243 246 249
288 310 330 326 325 324 316 327 359 5 355 348 339 327 321 322 322 321 318 315 313 311 309 309 312 315 319 323 324 324 322 317 305 298 296 291 285 282 282 283 284 284 284 285 285 286 286 286 285 283 282 282 284 286 285 278 270 262 253 246 242 245 248
303 327 328 319 316 314 322 351 6 356 348 345 335 326 325 325 323 320 319 317 314 312 311 312 316 317 317 318 318 319 319 314 303 298 295 290 285 283 281 282 284 285 286 288 288 287 286 286 285 282 281 282 282 284 287 285 280 272 260 249 242 244 246
322 324 317 313 314 323 347 1 356 347 344 341 334 328 326 324 323 321 321 319 316 313 311 314 319 320 319 321 322 322 319 311 302 296 293 289 287 286 285 284 284 285 287 288 287 289 293 296 297 292 287 284 282 282 284 283 283 281 271 260 253 253 253
324 322 323 322 325 337 351 351 342 338 341 339 334 328 324 326 326 323 321 320 317 313 312 316 320 323 326 329 329 328 322 311 302 297 294 293 292 291 289 288 286 286 287 288 289 297 309 315 314 307 299 292 288 287 287 285 285 286 280 272 267 265 263
324 332 331 325 330 339 342 337 333 336 340 338 332 327 326 329 327 323 322 321 318 317 318 320 323 327 331 333 332 331 323 311 304 300 298 296 294 292 291 289 288 288 288 288 291 303 316 322 323 318 309 303 300 297 296 296 293 290 284 278 272 269 268
330 341 329 325 335 337 329 326 330 338 340 334 329 331 332 328 324 323 324 324 325 325 324 324 325 327 330 332 334 333 324 313 308 304 302 300 298 296 294 291 292 293 292 294 300 309 318 325 328 327 319 311 305 298 297 301 299 294 292 291 289 287 286
342 327 310 323 336 316 305 318 331 334 335 331 330 335 334 327 323 325 330 332 331 328 325 324 325 326 329 333 334 333 325 316 310 308 306 306 303 300 296 295 296 296 297 307 317 321 325 328 330 329 324 315 305 297 298 302 300 298 298 297 295 294 295
1 300 295 316 309 285 288 325 337 327 330 336 336 335 332 328 326 330 335 335 331 328 327 327 327 329 332 333 333 333 328 318 312 310 309 308 305 301 297 298 300 299 302 314 322 324 327 330 332 334 331 322 312 306 305 302 297 297 298 296 294 293 291
340 305 310 317 300 293 309 338 331 324 335 343 340 335 332 332 333 335 336 334 332 333 334 332 330 332 335 334 335 336 333 322 314 310 306 305 302 299 298 303 308 310 314 319 323 328 333 335 337 337 330 320 311 303 299 296 292 292 293 291 291 292 291
292 299 299 291 296 318 332 330 330 337 340 344 341 334 333 339 341 339 336 334 336 339 339 337 337 338 338 338 339 342 340 333 326 317 307 305 305 305 314 325 329 332 337 336 335 340 344 344 345 343 333 322 315 307 300 295 291 289 289 288 287 287 286
249 264 268 269 282 319 324 327 0 356 340 345 343 333 336 346 348 344 338 334 337 342 345 346 345 343 342 342 345 349 349 345 342 332 317 313 315 323 342 355 352 350 353 353 353 356 357 355 355 352 345 335 327 323 319 311 299 291 285 279 274 273 274
248 249 258 278 299 309 311 326 356 359 353 354 344 336 341 346 345 345 342 337 337 342 347 350 350 348 348 350 353 355 356 357 358 353 345 340 337 338 350 359 359 359 1 3 5 7 9 9 8 7 5 1 356 354 351 341 327 316 307 296 288 283 282